Flag for Egypt Weather past 2 weeks in Port Said, Egypt

Now
68 °F

Sunny.


Feels Like: 68 °F
Forecast: 54 / 64 °F
Wind: 9 mph from Southwest

Location: Port Said Airport

Current Time: Mar 3, 2015 at 1:10:31 PM

Latest Report: Mar 3, 2015 at 12:00 PM


Visibility: 10 mi

Pressure: 30.15 "Hg

Humidity: 53%

Dew point: 50 °F

Location of Port SaidLocation

Historic Weather in Port Said — Graph

°F

Port Said temperature yesterday

Maximum temperature yesterday: 64 °F (at 11:00 AM)
Minimum temperature yesterday: 57 °F (at 5:00 AM)
Average temperature yesterday: 61 °F

Past Weeks' High & Low Weather Summary

 TemperatureHumidityPressure
High79 °F (Feb 27, 3:00 PM)94% (Feb 18, 6:00 AM)30.18 "Hg (Feb 18, 6:00 AM)
Low43 °F (Feb 20, 5:00 AM)37% (Feb 27, 3:00 PM)29.77 "Hg (Feb 24, 6:00 AM)
Average58 °F75%30.03 "Hg
* Reported Feb 16 11:00 AM — Mar 3 11:00 AM, Port Said, Weather by CustomWeather, © 2015

Note: Actual official high and low records may vary slightly from our data, if they occured in-between our weather recording intervals... More about our weather records

Advertising

Port Said weather history for previous 24 hours

 ConditionsComfort  
Time TempWeatherWind HumidityBarometerVisibility
11:00 AM
Tue, Mar 3
66 °FSunny.8 mph60%30.15 "Hg10 mi
10:00 AM61 °FScattered clouds.9 mph83%30.15 "HgN/A
9:00 AM59 °FScattered clouds.9 mph82%30.15 "HgN/A
8:00 AM59 °FScattered clouds.No wind82%30.15 "HgN/A
7:00 AM57 °FScattered clouds.No wind88%30.12 "HgN/A
6:00 AM57 °FClear.3 mph88%30.12 "Hg10 mi
5:00 AM59 °FClear.5 mph82%30.12 "Hg10 mi
4:00 AM59 °FClear.3 mph82%30.12 "Hg10 mi
3:00 AM59 °FClear.2 mph77%30.12 "Hg10 mi
2:00 AM61 °FClear.2 mph72%30.15 "Hg10 mi
1:00 AM61 °FClear.2 mph72%30.15 "Hg10 mi
12:00 AM61 °FClear.2 mph72%30.15 "Hg10 mi
11:00 PM
Mon, Mar 2
61 °FClear.3 mph72%30.15 "Hg10 mi
10:00 PM61 °FClear.3 mph72%30.15 "Hg10 mi
9:00 PM61 °FClear.5 mph72%30.15 "Hg10 mi
8:00 PM63 °FClear.5 mph68%30.15 "Hg10 mi
7:00 PM63 °FClear.7 mph68%30.12 "Hg10 mi
6:00 PM63 °FClear.8 mph73%30.12 "Hg10 mi
5:00 PM63 °FSunny.12 mph77%30.12 "Hg10 mi
4:00 PM64 °FSunny.12 mph68%30.12 "Hg10 mi
3:00 PM64 °FSunny.9 mph68%30.12 "Hg10 mi
2:00 PM64 °FSunny.8 mph64%30.12 "Hg10 mi
1:00 PM64 °FScattered clouds.7 mph68%30.12 "HgN/A
Weather by CustomWeather, © 2015

See weather overviewHow to use our weather pages